Location: Pitton
(51.0667°N, 1.7000°W)
Time: 22:02:23
(UTC+00:00)

Cosmos 407 Rocket - Pass Details

Date: 17 September 2019
Orbit: 744 x 786 km, 74.0° (Epoch: 18 October)

Event Time Altitude Azimuth Distance (km) Brightness Sun altitude
Rises 20:28:07 0° 331° (NNW) 3,209 7.7 -20.3°
Reaches altitude 10° 20:30:33 10° 326° (NNW) 2,276 6.9 -20.6°
Maximum altitude 20:35:28 48° 254° (WSW) 970 4.2 -21.3°
Enters shadow 20:38:34 21° 189° (S) 1,614 4.9 -21.7°
